Dewpoint
23 23 21 21 20 16 14 15 17 13 17 27 32 33 36 36 40 37 37 36 37 38 39 37 37 37 37 38 39 41 41 41 41 42 43 42 43 44 45 50 57 60 60 58
22 21 19 16 25 26 27 28 21 24 28 31 34 35 37 37 36 35 35 34 34 34 34 34 33 34 34 35 37 39 38 38 38 38 38 39 40 41 43 47 52 59 59 58
18 18 19 19 24 27 29 31 31 25 30 32 32 36 35 36 35 35 33 33 32 33 33 32 32 31 31 33 34 35 36 35 34 35 35 36 37 39 41 44 47 55 58 58
21 21 12 22 23 27 29 27 29 30 30 31 32 35 36 35 34 33 33 31 30 30 32 31 30 30 30 30 30 33 32 31 32 33 33 35 37 38 39 41 45 53 53 51
18 19 18 18 22 24 25 25 28 28 29 31 34 33 34 32 31 29 28 27 27 28 29 27 27 28 28 28 28 28 28 28 30 31 33 34 36 37 38 39 42 46 46 44
22 18 13 23 26 26 25 22 30 33 32 33 33 28 32 33 29 27 26 25 25 26 26 26 25 26 26 26 26 25 26 27 29 31 33 34 35 36 38 39 42 40 37 40
17 16 22 28 28 26 15 18 32 34 33 33 31 33 35 30 28 27 25 24 24 24 24 24 24 24 24 24 24 25 26 27 29 30 32 34 35 36 37 40 38 35 34 34
17 5 9 31 26 22 29 34 34 34 33 32 34 33 29 27 26 26 24 23 23 22 22 22 23 23 22 22 24 25 26 27 28 30 31 31 31 34 38 37 35 33 32 32
25 25 32 35 33 35 34 33 33 34 34 31 31 27 28 26 25 24 23 23 22 20 21 21 21 23 23 22 23 25 25 26 28 28 29 30 30 31 34 35 33 32 32 31
24 29 31 33 35 34 35 35 35 30 29 28 28 27 26 25 23 23 22 21 24 20 20 20 21 22 24 23 23 23 24 25 26 26 26 28 28 29 31 33 33 33 32 31
25 29 32 34 33 34 32 33 30 28 28 27 26 26 25 25 23 22 22 21 24 21 20 20 21 22 24 22 23 22 23 23 23 24 26 26 27 28 29 31 33 33 32 30
19 31 31 32 33 33 29 29 27 26 27 26 25 25 25 25 24 22 21 21 21 21 21 21 21 22 24 23 23 22 22 22 23 22 24 23 22 24 27 30 31 31 30 29
29 32 33 33 27 27 26 27 26 25 25 24 24 23 24 26 25 23 21 20 21 21 20 21 22 22 24 23 23 22 21 21 21 21 22 22 19 21 20 24 30 31 31 30
30 26 27 23 22 24 24 24 24 22 23 22 22 22 23 24 21 14 17 16 15 17 18 18 20 20 24 23 22 21 22 21 20 20 20 20 20 21 21 22 22 24 29 28
21 22 22 21 20 20 21 21 20 20 21 20 21 22 23 22 21 18 19 17 13 12 17 18 19 21 24 22 21 20 21 21 21 21 21 21 20 19 20 21 22 23 25 26
20 19 19 19 18 18 18 18 17 17 20 18 18 20 22 22 22 19 18 19 14 17 18 19 20 22 24 22 22 22 21 20 20 20 20 20 20 19 19 18 18 19 19 20
18 15 16 16 16 16 16 16 16 17 17 15 17 17 19 20 19 15 13 14 16 13 19 20 21 23 23 23 21 21 20 20 19 19 19 19 19 19 19 18 17 17 18 19
17 16 16 16 15 15 14 14 14 15 15 15 16 13 15 13 13 14 15 11 15 16 18 21 23 24 23 21 22 21 20 19 19 18 18 17 17 18 17 17 16 16 17 18
16 15 15 14 15 15 13 13 13 15 13 12 12 10 11 13 14 15 14 14 14 17 18 21 24 24 23 23 21 20 19 19 18 18 18 17 16 16 16 15 15 15 15 15
17 17 15 14 14 16 15 15 14 13 12 9 7 7 12 14 14 14 14 13 17 19 21 21 22 23 24 21 19 19 17 18 17 17 17 16 15 15 15 14 14 13 13 13
18 18 16 15 15 12 7 11 5 8 8 1 -0 4 9 12 9 8 12 14 17 19 20 20 21 23 23 20 19 17 16 16 17 16 15 15 14 14 13 13 13 12 12 12
15 12 11 8 8 8 7 8 10 4 1 1 1 1 9 13 10 9 9 12 16 17 18 19 20 21 21 20 19 16 17 16 16 15 15 15 14 13 12 12 11 11 11 11
11 10 7 4 5 6 5 7 6 2 1 5 1 4 7 14 11 8 7 13 17 18 19 19 20 20 19 19 18 16 14 14 15 14 13 13 13 13 12 11 11 11 10 10
9 8 9 8 4 8 6 3 5 7 4 9 7 3 6 7 6 15 16 14 13 16 17 19 18 18 16 16 16 16 14 13 11 13 12 12 11 11 10 10 9 9 8 8
10 9 10 11 9 6 5 5 8 6 7 9 6 10 13 13 8 11 7 12 15 14 15 17 17 16 16 15 14 13 12 10 10 10 8 7 6 7 7 7 6 6 5 5
13 11 11 10 8 6 7 7 5 1 2 5 7 6 2 4 10 13 11 8 11 11 13 14 15 14 14 13 13 13 12 11 9 8 6 5 5 4 2 2 1 1 -0 -0
15 13 11 9 9 8 7 4 4 3 0 -1 5 1 4 5 6 8 3 -0 3 9 11 13 13 11 10 10 11 11 11 10 7 7 6 5 5 2 -1 -2 -3 -4 -4 -4
Lifted_Index
1 1 1 1 0 0 0 0 0 1 1 0 1 1 2 2 2 2 3 2 2 2 2 2 1 2 2 3 4 4 5 5 5 5 5 5 6 5 3 1 0 -0 -1 -1
1 1 1 1 1 0 0 0 0 0 0 0 0 1 1 2 2 2 2 2 2 2 2 2 2 2 3 3 4 5 5 5 5 5 5 6 6 5 4 2 1 0 -1 -1
1 1 1 1 1 0 0 0 0 0 0 0 1 1 1 2 2 2 2 3 3 3 3 3 3 3 4 4 4 5 5 5 5 5 6 6 6 6 5 3 2 1 0 -0
1 1 1 1 1 0 0 0 0 0 1 1 1 1 1 2 2 3 3 3 4 4 4 4 4 4 4 4 4 5 5 5 5 6 6 6 7 6 5 4 2 2 1 0
1 1 1 1 1 1 1 1 1 1 1 1 2 2 2 2 3 4 4 4 4 5 5 5 5 5 5 4 5 5 5 5 6 6 7 7 7 7 6 4 3 2 2 1
1 1 1 2 2 1 1 1 2 2 2 2 2 2 3 3 4 5 6 6 6 6 6 6 6 6 6 5 5 6 6 7 7 7 8 8 8 7 6 5 4 3 2 2
1 1 1 2 2 2 2 2 4 4 4 3 3 3 4 4 5 6 7 7 8 8 7 8 8 8 7 7 7 7 8 8 8 8 8 9 9 8 7 6 5 4 3 3
2 2 2 3 3 3 3 4 5 5 5 5 4 4 5 5 6 6 7 8 8 8 8 9 9 9 8 8 8 8 8 9 9 8 8 8 9 9 8 7 6 6 5 4
2 2 3 3 4 4 5 5 6 6 6 6 5 5 5 6 6 7 7 8 8 8 8 9 9 9 9 10 10 9 9 9 9 8 7 8 9 9 9 8 7 7 5 4
3 3 3 4 4 5 5 6 6 7 7 6 6 6 6 7 7 8 8 8 9 8 8 9 10 11 12 12 12 11 10 9 9 7 6 7 8 9 9 9 9 8 6 6
3 3 3 4 5 5 5 6 7 7 7 7 7 7 7 8 8 9 9 10 10 10 9 10 11 12 13 13 13 12 11 10 9 8 7 7 8 10 11 12 11 10 9 9
3 3 4 4 5 6 6 6 7 7 7 7 7 7 8 8 9 10 10 11 11 10 10 10 11 12 13 13 13 12 11 10 10 9 8 8 8 11 13 14 14 14 13 12
4 4 4 5 6 6 7 7 7 8 8 8 8 8 8 9 9 10 10 11 11 11 11 11 11 12 13 14 14 14 13 12 12 11 10 10 10 12 14 16 17 17 16 16
4 4 5 5 6 7 7 8 8 8 8 8 8 9 9 9 9 10 11 11 12 12 12 11 11 12 14 15 15 15 14 14 14 14 13 13 13 15 16 17 18 19 20 19
5 5 5 6 7 7 8 8 8 8 8 8 9 9 10 10 10 11 11 12 12 12 12 12 11 13 15 16 16 16 16 16 16 16 16 16 16 17 18 19 20 21 22 23
5 5 6 6 7 7 7 7 7 7 7 8 9 10 10 11 11 11 12 12 12 12 12 12 12 14 15 16 16 16 17 18 18 18 18 18 19 19 20 21 22 23 24 25
5 5 6 6 6 6 7 7 7 8 8 9 10 11 11 11 11 12 12 13 13 13 13 14 14 15 16 16 17 17 17 18 19 19 20 20 20 20 21 22 23 24 25 25
6 6 7 7 7 7 7 8 9 9 10 11 11 12 12 12 12 12 13 14 14 14 14 15 15 16 16 17 17 17 17 18 19 19 20 20 20 21 21 22 23 24 25 25
7 8 8 8 8 8 9 10 11 11 12 13 13 13 13 13 13 14 14 14 14 14 15 16 16 16 16 17 17 17 17 17 18 19 20 20 21 21 21 22 22 23 24 24
8 8 8 9 9 10 11 12 13 13 14 15 15 14 14 15 15 16 16 16 16 16 17 17 17 17 17 17 17 17 17 17 17 18 19 19 20 20 21 21 21 22 22 22
8 8 9 9 10 12 13 14 15 15 16 17 16 16 16 17 17 17 17 17 18 18 18 18 18 17 17 17 17 17 17 17 17 18 18 19 19 20 20 21 21 21 21 22
8 9 10 11 12 13 15 16 16 17 17 18 18 18 18 18 18 18 18 18 19 19 19 19 19 18 18 17 17 17 17 17 17 18 18 18 19 19 20 20 20 21 21 22
9 10 11 13 13 14 15 16 17 18 18 19 19 19 19 19 19 19 19 20 20 21 20 20 20 19 18 18 17 17 17 17 18 18 18 19 19 19 20 20 21 21 22 22
11 12 13 14 15 15 15 16 17 18 18 19 20 20 20 20 20 20 21 21 22 22 22 21 20 19 19 18 18 17 17 18 18 19 19 19 20 20 21 21 22 22 22 23
13 13 14 15 15 15 16 16 17 18 18 19 19 20 20 20 21 21 22 22 22 22 22 22 21 20 20 19 19 18 18 19 19 20 20 20 21 21 22 22 22 23 23 23
14 15 15 15 16 16 16 16 16 17 18 18 19 20 21 21 21 21 22 22 22 22 22 22 22 21 21 20 20 20 20 20 20 21 21 21 21 22 22 22 23 23 23 24
15 15 16 16 16 16 16 16 16 17 18 18 19 20 21 21 21 22 22 22 22 22 23 23 23 22 22 21 21 21 21 21 21 21 21 22 22 22 22 22 23 23 23 24